Location: Complexul Astronomic Baia Mare
(47.6577°N, 23.5639°E)
Time: 23:52:00
(UTC+03:00)

ISS - Pass Details

Date: 04 June 2017
Orbit: 401 x 408 km, 51.6° (Epoch: 28 June)

Event Time Altitude Azimuth Distance (km) Brightness Sun altitude
Rises 22:57:47 0° 293° (WNW) 2,341 1.1 -12.5°
Reaches altitude 10° 22:59:53 10° 295° (WNW) 1,477 0.0 -12.7°
Maximum altitude 23:03:12 80° 22° (NNE) 420 -3.8 -13.0°
Enters shadow 23:05:26 19° 109° (ESE) 1,043 -2.2 -13.2°
